When you browse on this site, cookies collect data to enhance your experience and personalize the content and advertising you see.
Visit our Privacy Policy to learn more. By continuing to use the site, you agree to this use of cookies and data.
  • en France
  • Liste des pays
  • À 7 jours
  • Température de l'eau
  • Carte satellitaire
  • Carte météo
  • Widgets météo
  • user-avatar
    Se connecter

    Météo par heure à Bük

    Ce jour, 22 Juillet, Lundi

    Heure Température Précipitation Vent Pression Humidité
    00:00 +21°C° 0 mm 1 m/s 749 mmHg 77%
    01:00 +20°C° 0 mm 1 m/s 750 mmHg 78%
    02:00 +20°C° 0 mm 1 m/s 750 mmHg 78%
    03:00 +19°C° 0 mm 2 m/s 750 mmHg 79%
    04:00 +19°C° 0 mm 2 m/s 749 mmHg 79%
    05:00 +21°C° 0 mm 2 m/s 750 mmHg 74%
    06:00 +23°C° 0 mm 2 m/s 750 mmHg 69%
    07:00 +25°C° 0 mm 2 m/s 750 mmHg 65%
    08:00 +26°C° 0 mm 2 m/s 750 mmHg 58%
    09:00 +28°C° 0 mm 3 m/s 750 mmHg 51%
    10:00 +29°C° 0 mm 3 m/s 750 mmHg 44%
    11:00 +30°C° 0 mm 3 m/s 750 mmHg 41%
    12:00 +31°C° 0 mm 3 m/s 750 mmHg 38%
    13:00 +31°C° 0 mm 3 m/s 750 mmHg 35%
    14:00 +31°C° 0 mm 3 m/s 750 mmHg 35%
    15:00 +31°C° 0 mm 3 m/s 749 mmHg 34%
    16:00 +31°C° 0 mm 3 m/s 749 mmHg 34%
    17:00 +30°C° 0 mm 2 m/s 749 mmHg 39%
    18:00 +28°C° 0 mm 2 m/s 749 mmHg 44%
    19:00 +27°C° 0 mm 2 m/s 749 mmHg 50%
    20:00 +26°C° 0 mm 1 m/s 749 mmHg 53%
    21:00 +24°C° 0 mm 1 m/s 749 mmHg 56%
    22:00 +21°C° 0 mm 0 m/s 749 mmHg 59%
    23:00 +23°C° 0 mm 1 m/s 749 mmHg 59%

    Demain, 23 Juillet, Mardi

    Heure Température Précipitation Vent Pression Humidité
    00:00 +23°C° 0 mm 1 m/s 749 mmHg 59%
    01:00 +23°C° 0 mm 1 m/s 749 mmHg 59%
    02:00 +23°C° 0 mm 1 m/s 749 mmHg 60%
    03:00 +22°C° 0 mm 1 m/s 749 mmHg 61%
    04:00 +22°C° 0 mm 1 m/s 748 mmHg 62%
    05:00 +23°C° 0 mm 2 m/s 749 mmHg 61%
    06:00 +25°C° 0 mm 3 m/s 749 mmHg 60%
    07:00 +26°C° 0 mm 4 m/s 749 mmHg 59%
    08:00 +27°C° 0 mm 4 m/s 749 mmHg 53%
    09:00 +28°C° 0 mm 4 m/s 749 mmHg 47%
    10:00 +30°C° 0 mm 5 m/s 749 mmHg 41%
    11:00 +32°C° 0 mm 5 m/s 748 mmHg 39%
    12:00 +32°C° 0 mm 5 m/s 748 mmHg 37%
    13:00 +33°C° 0 mm 5 m/s 747 mmHg 35%
    14:00 +33°C° 0 mm 5 m/s 747 mmHg 35%
    15:00 +33°C° 0 mm 5 m/s 747 mmHg 35%
    16:00 +34°C° 0 mm 5 m/s 747 mmHg 35%
    17:00 +32°C° 0 mm 5 m/s 746 mmHg 40%
    18:00 +30°C° 0 mm 4 m/s 746 mmHg 45%
    19:00 +28°C° 0 mm 3 m/s 746 mmHg 50%
    20:00 +26°C° 0 mm 3 m/s 746 mmHg 57%
    21:00 +25°C° 0 mm 2 m/s 747 mmHg 63%
    22:00 +23°C° 0 mm 2 m/s 747 mmHg 69%
    23:00 +23°C° 0 mm 2 m/s 747 mmHg 71%

    Après-demain, 24 Juillet, Mercredi

    Heure Température Précipitation Vent Pression Humidité
    00:00 +22°C° 0 mm 1 m/s 747 mmHg 74%
    01:00 +22°C° 0 mm 1 m/s 747 mmHg 76%
    02:00 +21°C° 0 mm 1 m/s 747 mmHg 78%
    03:00 +21°C° 0 mm 1 m/s 746 mmHg 79%
    04:00 +20°C° 0 mm 1 m/s 746 mmHg 81%
    05:00 +22°C° 0 mm 1 m/s 746 mmHg 75%
    06:00 +24°C° 0 mm 2 m/s 746 mmHg 70%
    07:00 +25°C° 0 mm 2 m/s 747 mmHg 64%
    08:00 +27°C° 0 mm 2 m/s 747 mmHg 58%
    09:00 +29°C° 0 mm 2 m/s 747 mmHg 52%
    10:00 +30°C° 0 mm 3 m/s 747 mmHg 46%
    11:00 +31°C° 0 mm 3 m/s 746 mmHg 42%
    12:00 +33°C° 0 mm 3 m/s 746 mmHg 38%
    13:00 +34°C° 0 mm 4 m/s 746 mmHg 35%
    14:00 +34°C° 0 mm 4 m/s 745 mmHg 35%
    15:00 +34°C° 0 mm 4 m/s 745 mmHg 34%
    16:00 +35°C° 0 mm 4 m/s 745 mmHg 34%
    17:00 +33°C° 0 mm 3 m/s 745 mmHg 40%
    18:00 +30°C° 0 mm 3 m/s 745 mmHg 45%
    19:00 +29°C° 0 mm 2 m/s 745 mmHg 50%
    20:00 +27°C° 0 mm 2 m/s 745 mmHg 56%
    21:00 +25°C° 0 mm 1 m/s 746 mmHg 62%
    22:00 +24°C° 0 mm 1 m/s 746 mmHg 68%
    23:00 +23°C° 0 mm 1 m/s 746 mmHg 71%

    25 Juillet, Jeudi

    Heure Température Précipitation Vent Pression Humidité
    00:00 +22°C° 0 mm 1 m/s 746 mmHg 74%
    01:00 +21°C° 0 mm 2 m/s 746 mmHg 77%
    02:00 +20°C° 0 mm 2 m/s 746 mmHg 80%
    03:00 +20°C° 0 mm 2 m/s 746 mmHg 82%
    04:00 +20°C° 0 mm 2 m/s 746 mmHg 84%
    05:00 +21°C° 0 mm 2 m/s 746 mmHg 78%
    06:00 +23°C° 0 mm 2 m/s 747 mmHg 72%
    07:00 +24°C° 0 mm 3 m/s 747 mmHg 66%
    08:00 +26°C° 0 mm 3 m/s 747 mmHg 60%
    09:00 +28°C° 0 mm 3 m/s 747 mmHg 54%
    10:00 +29°C° 0 mm 3 m/s 747 mmHg 48%
    11:00 +31°C° 0 mm 3 m/s 747 mmHg 44%
    12:00 +32°C° 0 mm 2 m/s 746 mmHg 40%
    13:00 +34°C° 0 mm 2 m/s 746 mmHg 36%
    14:00 +34°C° 0 mm 3 m/s 746 mmHg 35%
    15:00 +35°C° 0 mm 3 m/s 746 mmHg 34%
    16:00 +35°C° 0 mm 3 m/s 745 mmHg 33%
    17:00 +33°C° 0 mm 3 m/s 745 mmHg 40%
    18:00 +30°C° 0 mm 3 m/s 745 mmHg 46%
    19:00 +29°C° 0 mm 3 m/s 745 mmHg 53%
    20:00 +27°C° 0 mm 2 m/s 745 mmHg 60%
    21:00 +25°C° 0 mm 2 m/s 745 mmHg 66%
    22:00 +24°C° 0 mm 1 m/s 746 mmHg 73%
    23:00 +23°C° 0 mm 1 m/s 745 mmHg 75%

    26 Juillet, Vendredi

    Heure Température Précipitation Vent Pression Humidité
    00:00 +22°C° 0 mm 1 m/s 745 mmHg 78%
    01:00 +20°C° 0 mm 0 m/s 745 mmHg 80%
    02:00 +20°C° 0 mm 0 m/s 745 mmHg 81%
    03:00 +19°C° 0 mm 0 m/s 745 mmHg 82%
    04:00 +19°C° 0 mm 0 m/s 745 mmHg 83%
    05:00 +23°C° 0 mm 1 m/s 745 mmHg 76%
    06:00 +24°C° 0 mm 1 m/s 745 mmHg 69%
    07:00 +26°C° 0 mm 1 m/s 745 mmHg 62%
    08:00 +27°C° 0 mm 2 m/s 745 mmHg 56%
    09:00 +29°C° 0 mm 2 m/s 745 mmHg 49%
    10:00 +30°C° 0 mm 3 m/s 745 mmHg 43%
    11:00 +31°C° 0 mm 3 m/s 745 mmHg 41%
    12:00 +33°C° 0 mm 3 m/s 744 mmHg 39%
    13:00 +34°C° 0 mm 3 m/s 744 mmHg 37%
    14:00 +34°C° 0 mm 3 m/s 744 mmHg 37%
    15:00 +34°C° 0 mm 3 m/s 743 mmHg 36%
    16:00 +34°C° 0 mm 3 m/s 743 mmHg 36%
    17:00 +33°C° 0 mm 3 m/s 743 mmHg 41%
    18:00 +30°C° 0 mm 3 m/s 743 mmHg 46%
    19:00 +29°C° 0 mm 3 m/s 743 mmHg 52%
    20:00 +27°C° 0 mm 3 m/s 743 mmHg 56%
    21:00 +26°C° 0 mm 2 m/s 743 mmHg 61%
    22:00 +24°C° 0 mm 2 m/s 743 mmHg 66%
    23:00 +23°C° 0 mm 2 m/s 743 mmHg 68%

    27 Juillet, Samedi

    Heure Température Précipitation Vent Pression Humidité
    00:00 +23°C° 0 mm 2 m/s 743 mmHg 70%
    01:00 +22°C° 0 mm 1 m/s 743 mmHg 72%
    02:00 +22°C° 0 mm 1 m/s 743 mmHg 74%
    03:00 +22°C° 0 mm 1 m/s 743 mmHg 75%
    04:00 +22°C° 0 mm 1 m/s 742 mmHg 77%
    05:00 +23°C° 0 mm 2 m/s 743 mmHg 71%
    06:00 +24°C° 0 mm 2 m/s 743 mmHg 65%
    07:00 +25°C° 0 mm 2 m/s 743 mmHg 59%
    08:00 +27°C° 0 mm 3 m/s 743 mmHg 53%
    09:00 +29°C° 0 mm 3 m/s 743 mmHg 47%
    10:00 +31°C° 0 mm 3 m/s 743 mmHg 41%
    11:00 +31°C° 0 mm 3 m/s 743 mmHg 39%
    12:00 +33°C° 0 mm 3 m/s 742 mmHg 37%
    13:00 +34°C° 0 mm 3 m/s 742 mmHg 35%
    14:00 +34°C° 0 mm 3 m/s 742 mmHg 35%
    15:00 +33°C° 0 mm 3 m/s 742 mmHg 36%
    16:00 +33°C° 0 mm 3 m/s 742 mmHg 36%
    17:00 +31°C° 0 mm 2 m/s 741 mmHg 41%
    18:00 +30°C° 0 mm 2 m/s 741 mmHg 45%
    19:00 +29°C° 0 mm 2 m/s 741 mmHg 49%
    20:00 +27°C° 0 mm 2 m/s 742 mmHg 53%
    21:00 +26°C° 0 mm 2 m/s 742 mmHg 56%
    22:00 +25°C° 0 mm 2 m/s 742 mmHg 60%
    23:00 +24°C° 0 mm 1 m/s 742 mmHg 62%
    Voir plus